Weather reports worldwide

Advertisment
Lulea/Kallax, Sweden (2186): temperature & dewpoint: 22.02.2017 15:00:00 - 28.02.2017 15:00:00 (CET)Lulea/Kallax, Sweden (2186): wind speed & gusts: 22.02.2017 15:00:00 - 28.02.2017 15:00:00 (CET)Lulea/Kallax, Sweden (2186): wind direction: 22.02.2017 15:00:00 - 28.02.2017 15:00:00 (CET)Lulea/Kallax, Sweden (2186): reduced air pressure: 22.02.2017 15:00:00 - 28.02.2017 15:00:00 (CET)Lulea/Kallax, Sweden (2186): visibility: 22.02.2017 15:00:00 - 28.02.2017 15:00:00 (CET)Lulea/Kallax, Sweden (2186): precipitation: 22.02.2017 15:00:00 - 28.02.2017 15:00:00 (CET)
Date & Time tt [°C] td [°C] ff [km/h] ff [kn] fx [km/h] fx [kn] dd ppp [hPa] vv [km] rr [mm]
28.02.2017 15:00:00 -5,5 -6,3 15 8 25 14 NE 996,1 3,0 0,2
28.02.2017 14:00:00 -5,6 -6,4 11 6 25 14 ENE 996,6 10 0,0
28.02.2017 13:00:00 -5,6 -6,4 11 6 25 14 ENE 997,1 10 0,0
28.02.2017 12:00:00 -5,4 -6,1 11 6 18 10 ENE 997,5 10 0,0
28.02.2017 11:00:00 -5,3 -5,9 8 4 14 8 ENE 997,7 10 0,0
28.02.2017 10:00:00 -6,0 -6,8 9 5 14 8 NE 997,6 10 0,0
28.02.2017 09:00:00 -6,0 -6,8 8 4 14 8 NE 997,5 8 0,2
28.02.2017 08:00:00 -5,9 -6,5 8 4 11 6 NE 997,4 4,0 0,4
28.02.2017 07:00:00 -5,4 -6,1 8 4 11 6 NE 997,3 4,0 0,4
28.02.2017 06:00:00 -5,3 -5,9 8 4 11 6 ENE 997,3 2,5 0,0
28.02.2017 05:00:00 -5,4 -6,0 8 4 11 6 E 997,4 10 0,0
28.02.2017 04:00:00 -5,6 -6,2 4 2 7 4 ENE 997,5 7 0,0
28.02.2017 03:00:00 -5,8 -6,4 5 3 11 6 E 997,6 4,6 0,0
28.02.2017 02:00:00 -6,0 -6,8 11 6 18 10 SE 997,7 10 0,0
28.02.2017 01:00:00 -6,0 -6,8 15 8 22 12 SE 998,2 5 0,0
28.02.2017 00:00:00 -6,1 -6,9 18 10 25 14 SE 998,1 5 0,1
27.02.2017 23:00:00 -6,2 -7,1 18 10 25 14 SE 998,6 5 0,0
27.02.2017 22:00:00 -6,5 -7,4 18 10 25 14 SE 999,1 4,9 0,4
27.02.2017 21:00:00 -6,7 -7,7 21 11 25 14 SE 999,4 1,2 0,5
27.02.2017 20:00:00 -7,0 -8,0 21 11 25 14 SSE 1000,3 2,0 0,5
27.02.2017 19:00:00 -6,7 -9,1 21 11 25 14 SSE 1000,9 10 0,0
27.02.2017 18:00:00 -6,5 -8,0 21 11 25 14 SE 1000,8 10 0,0
27.02.2017 17:00:00 -6,6 -8,1 16 9 25 14 SE 1000,9 10 0,0
27.02.2017 16:00:00 -7,6 -9,8 9 5 14 8 E 1001,2 10 0,0
27.02.2017 15:00:00 -7,9 -10,2 9 5 14 8 ESE 1001,6 10 0,0
27.02.2017 14:00:00 -9,3 -11,9 5 3 7 4 ESE 1002,1 10 0,0
27.02.2017 13:00:00 -9,1 -12,2 4 2 7 4 - 1002,6 10 0,0
27.02.2017 12:00:00 -9,9 -13,5 4 2 7 4 ESE 1002,5 10 0,0
27.02.2017 11:00:00 -11,6 -14,6 2 1 7 4 NNW 1002,7 10 0,0
27.02.2017 10:00:00 -14,1 -16,2 2 1 7 4 - 1002,5 10 0,0
27.02.2017 09:00:00 -15,4 -17,4 4 2 7 4 NW 1002,7 60 0,0
27.02.2017 08:00:00 -16,3 -18,2 5 3 7 4 NNW 1002,3 10 0,0
27.02.2017 07:00:00 -16,8 -18,8 0 0 11 6 N 1002,1 10 0,0
27.02.2017 06:00:00 -17,1 -19,0 0 0 7 4 N 1002,0 10 0,0
27.02.2017 05:00:00 -17,6 -19,5 5 3 7 4 NW 1001,9 10 0,0
27.02.2017 04:00:00 -17,8 -19,6 5 3 7 4 NNW 1001,8 10 0,0
27.02.2017 03:00:00 -17,4 -19,2 7 4 11 6 NNW 1001,7 15 0,0
27.02.2017 02:00:00 -15,9 -17,3 7 4 11 6 NW 1001,6 45 0,0
27.02.2017 01:00:00 -17,5 -19,1 8 4 11 6 N 1001,8 10 0,0
27.02.2017 00:00:00 -18,1 -19,9 2 1 7 4 NW 1001,9 10 0,0
26.02.2017 23:00:00 -17,4 -19,0 5 3 7 4 NNW 1001,7 10 0,0
26.02.2017 22:00:00 -15,4 -17,1 5 3 11 6 NW 1001,4 10 0,0
26.02.2017 21:00:00 -14,4 -16,0 8 4 11 6 NW 1001,1 10 0,0
26.02.2017 20:00:00 -13,2 -15,3 9 5 11 6 NW 1000,9 10 0,0
26.02.2017 19:00:00 -14,4 -15,8 5 3 7 4 NNW 1000,8 10 0,0
26.02.2017 18:00:00 -13,4 -15,9 5 3 11 6 NW 1000,6 10 0,0
26.02.2017 17:00:00 -10,1 -14,0 11 6 14 8 NW 1000,6 10 0,0
26.02.2017 16:00:00 -10,0 -13,9 11 6 18 10 NW 1000,3 10 0,0
26.02.2017 15:00:00 -9,7 -13,9 9 5 18 10 NNW 1000,3 10 0,0
26.02.2017 14:00:00 -8,0 -13,3 13 7 22 12 NNW 1000,1 10 0,0
26.02.2017 13:00:00 -8,8 -13,8 9 5 18 10 N 1000,0 10 0,0
26.02.2017 12:00:00 -9,3 -13,9 11 6 18 10 N 999,7 10 0,0
26.02.2017 11:00:00 -10,3 -14,4 9 5 18 10 N 999,7 10 0,0
26.02.2017 10:00:00 -11,5 -14,7 11 6 22 12 N 999,2 10 0,0
26.02.2017 09:00:00 -12,2 -15,0 15 8 25 14 N 998,8 10 0,0
26.02.2017 08:00:00 -11,4 -14,4 11 6 22 12 N 998,4 10 0,0
26.02.2017 07:00:00 -11,4 -14,2 9 5 18 10 N 997,8 10 0,0
26.02.2017 06:00:00 -9,8 -12,5 9 5 22 12 NNE 997,2 10 0,0
26.02.2017 05:00:00 -7,6 -10,1 5 3 18 10 N 996,6 10 0,0
26.02.2017 04:00:00 -7,4 -10,1 13 7 18 10 NW 996,1 10 0,0
26.02.2017 03:00:00 -7,3 -10,4 16 9 25 14 NNW 995,4 10 0,0
26.02.2017 02:00:00 -8,4 -11,0 18 10 29 16 NW 995,2 10 0,0
26.02.2017 01:00:00 -8,2 -11,0 16 9 22 12 NW 994,9 10 0,0
26.02.2017 00:00:00 -9,0 -11,8 15 8 18 10 NW 994,6 10 0,0
25.02.2017 23:00:00 -6,3 -9,8 11 6 18 10 WNW 994,3 10 0,0
25.02.2017 22:00:00 -7,3 -9,9 18 10 25 14 NW 994,3 10 0,0
25.02.2017 21:00:00 -7,4 -10,5 24 13 29 16 NNW 994,3 10 0,0
25.02.2017 20:00:00 -6,5 -10,5 16 9 18 10 NW 994,4 10 0,0
25.02.2017 19:00:00 -4,8 -9,3 13 7 18 10 WNW 994,2 10 0,0
25.02.2017 18:00:00 -4,6 -9,0 11 6 22 12 W 994,1 10 0,0
25.02.2017 17:00:00 -4,0 -8,6 18 10 22 12 WNW 994,3 10 0,0
25.02.2017 16:00:00 -3,5 -8,7 21 11 29 16 NW 994,1 10 0,0
25.02.2017 15:00:00 -3,4 -8,4 24 13 32 18 NW 994,1 10 0,0
25.02.2017 14:00:00 -3,5 -8,5 22 12 32 18 NW 993,9 10 0,0
25.02.2017 13:00:00 -4,4 -9,2 24 13 32 18 NW 993,7 10 0,0
25.02.2017 12:00:00 -6,0 -10,0 22 12 32 18 NNW 993,2 10 0,0
25.02.2017 11:00:00 -7,1 -10,9 21 11 32 18 NNW 993,1 10 0,0
25.02.2017 10:00:00 -9,5 -12,8 16 9 22 12 NW 992,8 10 0,0
25.02.2017 09:00:00 -9,7 -13,0 8 4 11 6 NW 992,5 10 0,0
25.02.2017 08:00:00 -10,8 -13,5 9 5 14 8 NW 992,1 10 0,0
25.02.2017 07:00:00 -10,8 -13,2 9 5 14 8 NW 992,3 10 0,0
25.02.2017 06:00:00 -9,3 -12,5 15 8 18 10 NW 992,2 10 0,0
25.02.2017 05:00:00 -8,9 -12,1 16 9 25 14 WNW 992,2 10 0,0
25.02.2017 04:00:00 -8,1 -11,5 21 11 32 18 NW 992,3 10 0,0
25.02.2017 03:00:00 -7,2 -10,6 28 15 36 19 NW 992,2 10 0,0
25.02.2017 02:00:00 -7,5 -11,1 28 15 36 19 NW 992,1 10 0,0
25.02.2017 01:00:00 -7,1 -10,0 26 14 32 18 NW 991,7 10 0,0
25.02.2017 00:00:00 -8,2 -10,1 13 7 29 16 NNW 991,3 10 0,0
24.02.2017 23:00:00 -9,9 -11,8 15 8 32 18 NNW 991,3 10 0,0
24.02.2017 22:00:00 -7,8 -9,8 16 9 32 18 NNW 991,0 6 0,2
24.02.2017 21:00:00 -8,0 -9,6 18 10 29 16 NNW 990,4 3,3 0,2
24.02.2017 20:00:00 -8,1 -9,5 18 10 32 18 NNW 989,8 4,8 0,5
24.02.2017 19:00:00 -8,3 -10,1 18 10 32 18 NNW 989,2 8 0,4
24.02.2017 18:00:00 -8,5 -10,3 16 9 32 18 NNW 988,4 2,3 0,4
24.02.2017 17:00:00 -8,7 -10,8 18 10 29 16 NNW 987,7 4,6 0,0
24.02.2017 16:00:00 -8,7 -11,0 18 10 32 18 NNW 986,9 8 0,0
24.02.2017 15:00:00 -8,8 -11,0 18 10 32 18 NNW 986,1 7 0,0
24.02.2017 14:00:00 -8,8 -11,4 21 11 36 19 NNW 985,4 6 0,0
24.02.2017 13:00:00 -8,8 -11,7 18 10 32 18 NNW 984,8 5 0,0
24.02.2017 12:00:00 -9,3 -11,8 18 10 40 21 N 983,9 6 0,0
24.02.2017 11:00:00 -9,6 -12,3 18 10 32 18 N 983,5 9 0,0
24.02.2017 10:00:00 -10,0 -12,6 21 11 32 18 N 983,1 9 0,0
24.02.2017 09:00:00 -10,4 -12,9 16 9 32 18 N 982,5 10 0,0
24.02.2017 08:00:00 -10,7 -12,9 16 9 25 14 NNW 982,0 10 0,0
24.02.2017 07:00:00 -10,8 -12,7 16 9 25 14 NNW 981,6 9 0,0
24.02.2017 06:00:00 -10,7 -12,3 16 9 29 16 NNW 981,2 6 0,2
24.02.2017 05:00:00 -10,8 -12,4 18 10 29 16 NNW 980,6 1,5 0,4
24.02.2017 04:00:00 -10,8 -12,5 21 11 32 18 NNW 980,4 2,4 0,5
24.02.2017 03:00:00 -10,9 -12,6 21 11 32 18 NNW 980,3 2,5 0,4
24.02.2017 02:00:00 -10,9 -12,5 21 11 32 18 NNW 980,1 1,2 0,7
24.02.2017 01:00:00 -10,8 -12,4 21 11 32 18 NNW 980,0 1,7 0,5
24.02.2017 00:00:00 -10,7 -12,6 18 10 32 18 NNW 979,7 2,8 0,3
23.02.2017 23:00:00 -10,5 -12,7 21 11 32 18 NNW 979,5 7 0,0
23.02.2017 22:00:00 -10,5 -12,6 21 11 32 18 NNW 979,4 5 0,1
23.02.2017 21:00:00 -10,4 -12,3 21 11 32 18 NNW 979,1 5 0,1
23.02.2017 20:00:00 -10,1 -12,1 21 11 32 18 NNW 978,8 3,4 0,0
23.02.2017 19:00:00 -9,8 -11,9 16 9 29 16 N 978,5 10 0,0
23.02.2017 18:00:00 -9,2 -11,0 13 7 29 16 N 978,4 6 0,0
23.02.2017 17:00:00 -8,8 -10,4 15 8 25 14 N 978,0 6 0,0
23.02.2017 16:00:00 -8,4 -9,9 15 8 25 14 N 977,6 8 0,0
23.02.2017 15:00:00 -8,4 -9,7 13 7 22 12 N 977,5 2,5 0,0
23.02.2017 14:00:00 -8,2 -9,5 11 6 22 12 N 977,3 2,5 0,3
23.02.2017 13:00:00 -8,1 -9,6 11 6 25 14 N 977,0 2,5 0,2
23.02.2017 12:00:00 -8,2 -9,5 11 6 22 12 N 976,9 4,0 0,3
23.02.2017 11:00:00 -8,4 -9,7 11 6 22 12 N 976,3 2,5 0,3
23.02.2017 10:00:00 -8,7 -9,9 11 6 22 12 NNE 976,0 3,5 0,3
23.02.2017 09:00:00 -8,7 -9,9 9 5 22 12 NNE 976,0 2,5 0,6
23.02.2017 08:00:00 -8,2 -9,3 11 6 22 12 NE 975,8 1,4 2,0
23.02.2017 07:00:00 -8,0 -9,1 9 5 18 10 NE 975,5 1,2 2,0
23.02.2017 06:00:00 -7,4 -8,4 9 5 22 12 ENE 975,2 1,5 2,0
23.02.2017 05:00:00 -7,4 -8,3 9 5 18 10 ENE 975,2 1,1 1,0
23.02.2017 04:00:00 -7,2 -8,3 11 6 22 12 E 975,4 1,6 1,0
23.02.2017 03:00:00 -7,5 -8,7 11 6 25 14 E 975,7 1,4 0,8
23.02.2017 02:00:00 -7,5 -8,8 16 9 36 19 ESE 975,8 2,4 0,3
23.02.2017 01:00:00 -7,2 -8,5 22 12 32 18 ESE 976,0 2,0 0,2
23.02.2017 00:00:00 -6,7 -8,0 26 14 36 19 SE 976,4 5 0,0
22.02.2017 23:00:00 -6,3 -7,5 26 14 36 19 SE 976,7 6 0,1
22.02.2017 22:00:00 -5,9 -6,9 24 13 40 21 SE 976,9 1,5 0,4
22.02.2017 21:00:00 -5,5 -6,4 31 17 40 21 SE 977,2 2,6 0,3
22.02.2017 20:00:00 -4,9 -6,2 34 18 43 23 SSE 977,5 2,1 0,5
22.02.2017 19:00:00 -4,5 -5,8 31 17 43 23 SE 977,9 4,4 0,3
22.02.2017 18:00:00 -4,2 -5,7 34 18 43 23 SSE 978,4 2,8 0,3
22.02.2017 17:00:00 -4,0 -5,2 31 17 40 21 SSE 978,9 2,8 0,0
22.02.2017 16:00:00 -3,7 -5,7 29 16 40 21 SSE 979,8 10 0,0
22.02.2017 15:00:00 -3,9 -5,6 34 18 47 25 SSE 980,4 10 0,0

tt = temperature
td = dewpoint
ff = wind speed
fx = gusts
dd = wind direction
ppp = reduced air pressure
vv = visibility
rr = precipitation

Next stations